Theta_e
288 288 287 288 290 290 290 288 287 279 278 280 280 283 283 284 285 285 284 288 290 290 290 290 291 291 291 292 293 293 294 295 296 297 298 298 297 298
288 287 287 287 286 285 284 284 283 281 275 278 278 280 281 283 285 284 283 288 288 289 290 289 290 290 291 291 292 292 292 293 293 295 297 297 296 297
287 286 286 286 284 283 281 281 280 278 275 277 278 279 278 279 281 282 283 283 283 288 288 289 290 290 291 291 290 290 291 292 293 294 295 295 295 295
287 286 285 287 282 281 280 279 278 278 276 275 276 277 277 279 279 279 282 284 283 286 287 287 288 288 289 290 290 290 291 292 292 292 293 294 293 293
285 284 283 283 281 280 279 278 277 279 277 276 276 277 277 278 278 280 280 280 283 285 285 285 286 287 288 289 289 289 290 291 291 292 292 292 292 292
286 285 284 282 280 279 278 277 277 276 276 275 276 276 276 278 278 277 278 279 278 281 282 283 285 286 286 287 288 288 289 290 291 291 291 291 290 292
284 284 284 284 287 284 279 277 277 275 275 275 274 275 276 276 276 278 276 276 277 278 278 279 280 281 282 285 286 287 288 290 290 290 291 291 291 291
281 282 282 284 285 285 284 283 280 276 274 272 274 274 274 276 276 275 275 274 274 278 277 278 280 279 281 282 285 287 288 290 290 289 289 290 290 290
281 281 281 283 282 279 281 280 279 280 278 275 273 273 273 275 275 275 276 276 276 279 278 277 279 278 281 283 286 287 287 289 290 290 290 290 289 289
281 282 280 279 279 278 277 276 277 276 277 277 276 275 275 277 278 279 279 279 278 279 278 276 279 278 281 281 285 287 288 289 290 290 290 289 289 289
283 282 280 279 280 282 278 276 276 276 279 280 280 281 281 281 281 279 276 275 274 276 278 278 277 278 280 281 281 286 288 288 288 290 290 290 289 288
281 280 283 280 281 281 275 274 272 274 275 276 276 277 278 278 280 278 277 275 275 274 277 278 278 280 276 277 278 280 279 285 286 287 290 290 289 286
280 279 279 282 281 281 282 276 274 277 276 276 275 275 276 276 277 277 278 277 276 275 279 280 279 280 280 277 277 279 279 282 284 283 286 289 289 287
279 281 279 282 282 283 281 281 281 279 273 272 272 273 273 274 275 276 277 278 278 278 280 281 280 281 279 278 276 278 282 284 284 278 278 283 287 287
280 280 281 282 282 281 282 282 278 275 272 267 270 271 272 274 276 276 277 277 278 279 281 281 280 280 281 279 278 277 280 281 285 278 276 278 283 285
280 281 278 278 274 275 275 278 277 274 273 271 269 270 272 272 273 274 273 275 276 275 278 279 280 280 278 281 280 279 279 279 281 282 275 277 283 284
278 277 278 275 275 275 276 276 276 275 272 270 269 269 271 272 271 274 274 274 272 273 274 277 280 280 281 282 280 280 280 279 282 280 278 277 282 284
279 275 276 272 273 273 273 274 275 273 273 272 268 270 269 269 270 272 273 271 271 272 273 275 276 276 277 280 281 278 278 281 283 279 281 279 281 284
278 274 273 271 271 273 273 274 274 274 273 272 271 269 267 269 268 270 270 270 271 272 273 274 273 273 272 269 277 283 277 279 280 281 281 280 280 282
280 279 276 274 273 274 274 274 275 271 271 271 269 265 262 265 266 267 269 263 267 271 272 273 272 273 272 271 274 275 282 276 279 280 279 281 282 283
279 279 279 278 275 275 275 274 272 271 270 266 267 265 260 265 264 265 265 265 265 271 270 270 272 276 278 279 272 273 273 281 281 279 280 277 276 280
279 279 279 279 278 276 275 275 271 271 271 269 264 261 259 262 262 262 261 262 267 266 269 270 274 276 277 277 277 271 273 274 279 281 281 281 277 274
280 280 279 279 279 278 277 277 275 274 274 272 269 266 260 262 263 262 262 265 267 266 267 268 270 273 274 276 275 276 277 274 276 276 276 281 282 282
Wind_Speed
1 2 1 2 1 2 2 2 2 3 3 2 2 4 4 4 8 6 6 15 19 18 18 20 20 20 21 22 20 22 22 23 26 25 25 23 23 25
2 3 3 2 1 3 2 2 2 2 4 1 2 3 4 7 9 9 8 18 17 18 17 19 20 19 21 21 21 21 21 23 26 27 26 23 23 25
3 2 3 2 1 2 2 1 1 1 3 3 2 3 4 7 9 7 8 7 6 15 18 18 18 19 20 17 18 18 20 21 23 22 22 22 23 25
3 1 1 1 1 3 2 2 2 2 3 5 3 4 5 8 9 9 8 8 6 12 20 19 20 20 19 19 17 18 20 21 20 23 25 24 23 24
3 2 3 3 4 3 4 4 2 2 1 2 7 4 4 5 8 7 7 6 7 17 19 21 21 20 20 19 18 19 19 17 17 20 21 21 22 24
3 3 4 4 5 5 4 3 2 1 2 4 6 7 4 6 5 6 6 6 9 10 15 16 18 18 21 20 20 20 19 17 14 17 16 17 16 20
3 4 5 6 8 7 4 4 2 1 3 5 7 6 7 6 7 5 7 8 10 8 7 6 5 8 9 14 16 20 19 15 14 14 13 12 14 14
4 4 5 7 3 5 6 6 3 1 4 3 4 6 6 5 5 6 7 7 7 3 3 12 5 9 8 7 17 21 20 17 16 9 11 16 13 12
5 4 4 2 5 4 2 1 3 7 5 4 6 5 6 8 9 10 9 8 8 9 6 11 5 9 8 10 20 21 20 18 17 17 18 18 15 12
5 4 5 5 6 5 3 2 4 4 5 5 5 6 7 8 8 9 10 9 5 6 4 8 6 9 8 7 19 17 18 18 17 18 19 19 16 10
5 5 5 5 8 6 2 3 5 5 7 9 11 14 16 16 13 6 6 7 9 8 4 5 5 7 7 9 6 11 12 13 14 16 17 19 15 10
5 5 7 7 10 7 4 4 4 6 5 6 6 8 10 10 13 6 6 7 7 7 2 5 8 5 4 3 3 4 3 9 12 15 16 16 12 4
5 4 4 11 11 9 8 5 6 4 7 6 5 5 5 5 5 6 7 6 7 7 10 7 7 7 3 4 3 3 2 5 8 7 11 11 10 7
7 6 5 10 13 12 8 9 12 6 3 4 3 5 5 4 5 6 8 7 7 10 12 9 7 4 4 6 4 3 5 6 5 3 1 4 7 3
6 9 11 11 12 8 12 13 8 3 3 2 4 3 3 4 6 6 8 8 9 9 7 8 7 9 7 5 5 3 6 3 4 3 2 2 3 2
7 8 6 5 5 5 4 7 4 4 4 4 3 3 3 3 3 3 4 7 7 5 8 7 8 8 6 3 4 6 3 4 6 5 1 1 1 2
5 3 4 4 4 4 4 5 4 3 3 3 2 2 2 2 3 4 3 5 5 6 7 8 9 10 5 2 3 4 7 5 4 3 2 1 1 3
5 4 6 5 6 6 6 4 4 4 3 3 3 2 2 2 2 3 3 3 5 6 5 6 8 8 4 1 5 5 4 5 2 3 4 2 2 4
5 5 6 6 7 6 5 5 4 4 4 4 3 3 2 2 2 2 3 4 4 5 6 6 5 5 6 2 3 11 5 5 4 4 4 4 2 4
7 8 8 7 7 6 6 5 5 3 4 4 3 3 3 2 1 2 3 2 4 4 6 6 5 5 3 3 3 3 13 4 4 3 3 4 4 6
8 8 8 7 7 7 6 5 5 5 5 3 4 4 3 3 2 2 2 5 4 3 6 7 7 12 8 4 2 3 3 12 10 4 3 1 2 2
7 9 8 7 7 7 7 6 5 5 5 5 4 4 4 3 3 2 2 2 2 2 3 5 8 7 4 4 3 0 2 4 6 14 16 11 2 1
8 8 8 8 7 7 7 6 6 6 7 6 5 4 4 3 3 3 2 3 2 2 2 4 5 4 4 4 4 3 3 1 2 3 5 14 13 13
Wind_Direction
338 320 290 273 259 213 225 224 246 313 291 332 344 3 333 334 319 314 312 314 311 307 299 297 297 295 298 292 293 290 287 287 287 280 275 275 281 288
272 294 302 316 6 68 91 101 103 191 274 268 263 304 318 312 306 313 296 309 305 301 300 302 299 298 302 297 292 288 287 285 282 278 276 272 279 286
291 300 306 181 133 121 132 140 149 169 261 290 281 291 299 302 307 297 298 290 288 303 309 310 312 305 298 297 301 294 284 285 279 280 273 274 279 283
284 8 325 283 251 173 182 210 197 227 217 290 272 308 302 304 294 302 301 304 311 310 311 313 306 308 304 295 293 292 282 274 278 279 274 272 275 283
200 233 289 272 257 209 227 235 219 227 237 275 297 289 284 290 301 299 301 302 302 308 302 296 295 300 301 304 298 297 292 287 276 272 265 260 269 280
208 258 286 214 214 239 240 228 224 294 282 280 287 289 284 292 283 297 305 305 303 301 297 293 294 295 300 297 292 291 288 289 292 304 252 245 260 272
255 264 258 243 247 219 175 204 177 272 288 288 289 289 296 302 301 301 297 301 300 281 279 283 278 293 284 287 284 287 285 276 284 292 298 247 256 272
257 279 288 283 228 167 155 154 167 245 269 255 278 283 292 310 300 290 291 302 307 266 327 300 277 281 276 271 273 277 276 276 262 269 288 278 266 277
241 260 278 222 207 206 197 244 295 299 287 261 280 278 297 296 291 293 287 280 279 291 287 289 300 280 277 275 278 278 277 274 264 244 247 261 266 271
247 262 246 261 225 207 211 295 288 284 280 273 265 270 265 276 274 286 287 295 277 282 252 280 296 280 283 270 285 285 274 277 262 256 253 251 258 267
244 244 248 235 210 200 214 280 288 289 291 290 305 308 314 314 313 316 308 313 309 303 256 257 283 293 283 282 280 279 282 303 308 265 250 248 253 252
236 247 244 209 202 210 200 232 269 279 278 288 294 305 306 300 313 295 288 298 304 308 262 304 294 286 296 267 280 284 292 296 310 298 264 244 244 235
224 233 222 221 217 229 257 201 223 253 276 273 281 289 288 290 295 297 290 277 291 283 286 304 298 287 247 291 282 278 265 290 313 290 286 247 240 213
227 229 228 227 228 244 263 257 267 258 243 268 282 287 283 286 297 298 294 288 270 268 283 292 296 289 287 288 272 304 295 318 296 281 315 259 249 216
221 228 230 235 244 254 265 274 274 236 238 254 267 260 248 274 298 307 305 299 290 289 296 300 298 311 292 266 283 285 320 307 313 309 318 224 184 192
234 237 209 206 219 239 267 271 242 224 217 223 227 236 271 291 294 294 293 314 314 312 312 308 307 316 299 257 283 300 304 309 309 306 277 317 255 237
204 187 215 218 231 238 253 245 242 230 209 200 200 243 262 272 281 306 293 317 315 319 323 328 332 325 323 330 315 322 304 295 304 323 15 63 9 283
202 196 221 211 220 233 241 244 235 235 224 189 198 216 238 262 277 304 310 304 312 319 321 328 336 341 337 335 63 340 310 321 357 3 27 62 27 355
204 202 215 210 224 228 229 218 236 226 194 189 189 209 225 265 296 294 307 315 315 318 320 326 337 341 340 313 299 42 358 340 351 24 26 26 18 358
215 223 222 221 224 226 226 224 234 209 192 188 189 195 199 189 274 291 314 291 301 308 326 330 328 328 309 273 310 299 14 350 347 9 21 52 58 61
220 225 219 215 220 221 223 218 207 198 194 176 202 194 192 168 246 265 307 313 298 310 332 326 310 307 284 268 1 321 331 25 47 20 341 6 355 33
218 220 220 218 213 215 216 216 204 194 195 200 205 198 188 168 207 233 285 278 294 265 275 304 317 331 349 354 355 46 331 336 21 46 38 33 346 108
228 219 216 214 213 213 218 212 204 205 203 201 189 198 163 177 203 201 230 267 256 309 301 318 332 338 328 346 339 350 0 238 24 12 21 18 36 54